EHI
0 0 0 0 0 0 0 0 0 0 0 0 0 0 0 0 0 0 0 0 0 0 0 0 0 0 0 0 0 0 0 0 0 0 0 0 0 0 0 0 0 0 0 0
0 0 0 0 0 0 0 0 0 0 0 0 0 0 0 0 0 0 0 0 0 0 0 0 0 0 0 0 0 0 0 0 0 0 0 0 0 0 0 0 0 0 0 0
0 0 0 0 0 0 0 0 0 0 0 0 0 0 0 0 0 0 0 0 0 0 0 0 0 0 0 0 0 0 0 0 0 0 0 0 0 0 0 0 0 0 0 0
0 0 0 0 0 0 0 0 0 0 0 0 0 0 0 0 0 0 0 0 0 0 0 0 0 0 0 0 0 0 0 0 0 0 0 0 0 0 0 0 0 0 0 0
0 0 0 0 0 0 0 0 0 0 0 0 0 0 0 0 0 0 0 0 0 0 0 0 0 0 0 0 0 0 0 0 0 0 0 0 0 0 0 0 0 0 0 0
0 0 0 0 0 0 0 0 0 0 0 0 0 0 0 0 0 0 0 0 0 0 0 0 0 0 0 0 0 0 0 0 0 0 0 0 0 0 0 0 0 0 0 0
0 0 0 0 0 0 0 0 0 0 0 0 0 0 0 0 0 0 0 0 0 0 0 0 0 0 0 0 0 0 0 0 0 0 0 0 0 0 0 0 0 0 0 0
0 0 0 0 0 0 0 0 0 0 0 0 0 0 0 0 0 0 0 0 0 0 0 0 0 0 0 0 0 0 0 0 0 0 0 0 0 0 0 0 0 0 0 0
0 0 0 0 0 0 0 0 0 0 0 0 0 0 0 0 0 0 0 0 0 0 0 0 0 0 0 0 0 0 0 0 0 0 0 0 0 0 0 0 0 0 0 0
0 0 0 0 0 0 0 0 0 0 0 0 0 0 0 0 0 0 0 0 0 0 0 0 0 0 0 0 0 0 0 0 0 0 0 0 0 0 0 0 0 0 0 0
0 0 0 0 0 0 0 0 0 0 0 0 0 0 0 0 0 0 0 0 0 0 0 0 0 0 0 0 0 0 0 0 0 0 0 0 0 0 0 0 0 0 0 0
0 0 0 0 0 0 0 0 0 0 0 0 0 0 0 0 0 0 0 0 0 0 0 0 0 0 0 0 0 0 0 0 0 0 0 0 0 0 0 0 0 0 0 0
0 0 0 0 0 0 0 0 0 0 0 0 0 0 0 0 0 0 0 0 0 0 0 0 0 0 0 0 0 0 0 0 0 0 0 0 0 0 0 0 0 0 0 0
0 0 0 0 0 0 0 0 0 0 0 0 0 0 0 0 0 0 0 0 0 0 0 0 0 0 0 0 0 0 0 0 0 0 0 0 0 0 0 0 0 0 0 0
0 0 0 0 0 0 0 0 0 0 0 0 0 0 0 0 0 0 0 0 0 0 0 0 0 0 0 0 0 0 0 0 0 0 0 0 0 0 0 0 0 0 0 0
0 0 0 0 0 0 0 0 0 0 0 0 0 0 0 0 0 0 0 0 0 0 0 0 0 0 0 0 0 0 0 0 0 0 0 0 0 0 0 0 0 0 0 0
0 0 0 0 0 0 0 0 0 0 0 0 0 0 0 0 0 0 0 0 0 0 0 0 0 0 0 0 0 0 0 0 0 0 0 0 0 0 0 0 0 0 0 0
0 0 0 0 0 0 0 0 0 0 0 0 0 0 0 0 0 0 0 0 0 0 0 0 0 0 0 0 0 0 0 0 0 0 0 0 0 0 0 0 0 0 0 0
0 0 0 0 0 0 0 0 0 0 0 0 0 0 0 0 0 0 0 0 0 0 0 0 0 0 0 0 0 0 0 0 0 0 0 0 0 0 0 0 0 0 0 0
0 0 0 0 0 0 0 0 0 0 0 0 0 0 0 0 0 0 0 0 0 0 0 0 0 0 0 0 0 0 0 0 0 0 0 0 0 0 0 0 0 0 0 0
0 0 0 0 0 0 0 0 0 0 0 0 0 0 0 0 0 0 0 0 0 0 0 0 0 0 0 0 0 0 0 0 0 0 0 0 0 0 0 0 0 0 0 0
0 0 0 0 0 0 0 0 0 0 0 0 0 0 0 0 0 0 0 0 0 0 0 0 0 0 0 0 0 0 0 0 0 0 0 0 0 0 0 0 0 0 0 0
0 0 0 0 0 0 0 0 0 0 0 0 0 0 0 0 0 0 0 0 0 0 0 0 0 0 0 0 0 0 0 0 0 0 0 0 0 0 0 0 0 0 0 0
0 0 0 0 0 0 0 0 0 0 0 0 0 0 0 0 0 0 0 0 0 0 0 0 0 0 0 0 0 0 0 0 0 0 0 0 0 0 0 0 0 0 0 0
0 0 0 0 0 0 0 0 0 0 0 0 0 0 0 0 0 0 0 0 0 0 0 0 0 0 0 0 0 0 0 0 0 0 0 0 0 0 0 0 0 0 0 0
0 0 0 0 0 0 0 0 0 0 0 0 0 0 0 0 0 0 0 0 0 0 0 0 0 0 0 0 0 0 0 0 0 0 0 0 0 0 0 0 0 0 0 0
0 0 0 0 0 0 0 0 0 0 0 0 0 0 0 0 0 0 0 0 0 0 0 0 0 0 0 0 0 0 0 0 0 0 0 0 0 0 0 0 0 0 0 0
Wind_Speed
1 1 0 0 0 1 2 4 4 3 2 1 1 2 2 3 5 7 8 8 8 7 6 6 6 6 5 4 3 1 1 3 3 3 4 5 5 5 5 5 6 6 6 5
3 3 1 2 2 0 1 1 2 1 1 1 2 3 5 5 6 7 7 8 8 7 8 7 7 7 6 5 4 2 2 3 3 4 5 5 5 5 6 5 5 5 5 5
2 4 3 2 2 1 1 0 2 3 2 1 2 3 3 4 5 6 6 7 7 7 7 7 6 6 7 6 5 3 3 3 3 4 5 5 6 6 6 6 5 5 5 5
1 2 1 3 1 1 3 2 2 1 2 1 0 2 3 4 4 5 6 7 7 7 7 6 6 6 6 5 4 3 3 3 3 4 5 5 6 6 6 5 5 5 5 5
2 0 4 3 1 1 2 0 1 1 2 3 2 2 1 4 4 4 5 5 6 6 6 6 7 6 6 5 4 3 3 3 4 5 5 6 7 7 5 5 5 4 4 6
2 1 4 2 1 2 1 1 1 2 2 2 2 1 2 4 5 5 5 5 6 6 6 6 6 6 6 6 4 4 5 4 3 4 6 7 7 6 4 5 5 5 5 5
2 2 6 2 3 0 2 3 1 1 1 1 1 2 3 5 5 5 5 6 6 6 6 6 6 6 6 6 5 6 5 4 3 4 6 6 5 5 5 5 5 5 5 4
3 3 6 2 1 2 3 1 2 1 1 1 2 3 4 4 5 6 6 6 6 6 7 6 6 6 6 6 6 5 4 4 3 4 4 4 6 6 6 7 7 6 5 5
5 5 1 1 1 1 2 2 1 0 1 1 2 4 4 5 5 6 6 6 6 6 7 7 6 5 7 7 6 5 4 4 3 3 3 4 6 7 6 7 6 6 5 5
2 3 2 1 1 1 1 1 1 0 1 1 3 4 5 5 6 6 6 6 6 6 7 7 7 6 6 7 7 5 5 4 3 3 3 4 5 6 6 7 7 6 6 6
3 2 1 2 3 2 1 1 0 1 1 2 3 4 5 6 6 6 6 6 6 6 7 8 8 8 7 7 6 6 6 5 4 4 4 5 5 6 7 7 8 8 7 6
5 5 5 4 3 3 2 2 1 2 3 3 3 5 6 6 6 6 7 6 7 7 8 8 8 8 7 7 6 6 6 5 4 3 4 4 4 5 9 9 12 14 12 10
3 2 3 2 2 2 2 2 2 3 3 4 4 4 5 6 6 6 7 7 8 8 8 9 8 9 8 7 6 6 6 6 4 4 4 4 4 5 4 7 12 14 15 15
3 3 2 2 2 2 2 2 2 3 4 4 4 5 5 6 7 7 8 8 8 8 9 8 9 9 8 7 7 7 7 7 6 4 5 5 5 5 4 5 5 5 10 15
3 3 3 2 1 1 1 1 3 4 5 5 5 5 6 7 8 8 8 8 8 8 8 8 9 9 8 7 8 8 7 5 5 5 4 5 4 4 4 5 5 4 3 6
3 2 2 2 2 2 2 3 4 5 5 6 6 7 7 7 8 9 8 7 7 9 9 9 10 9 8 8 8 7 6 8 7 5 4 4 4 4 5 5 5 5 5 5
4 3 3 3 4 4 4 5 5 6 6 7 7 7 7 7 8 8 8 7 7 9 9 9 10 9 8 7 7 6 6 6 8 5 4 4 4 5 5 5 5 5 5 6
4 4 4 4 4 5 5 5 6 6 6 7 7 7 7 8 9 10 9 8 8 9 9 8 8 8 7 7 6 5 5 5 5 5 4 4 4 4 4 4 5 5 4 5
3 3 3 4 4 4 5 6 6 6 6 6 7 7 8 8 8 9 9 8 9 10 8 7 11 8 7 7 8 5 5 6 5 4 4 5 4 3 3 4 4 4 4 4
2 2 3 4 4 4 5 6 6 6 6 6 6 8 8 8 8 8 8 8 7 7 8 9 8 7 7 7 8 4 5 5 5 4 4 4 4 4 3 3 3 3 3 3
3 3 4 4 5 5 5 5 5 7 7 6 6 8 9 9 8 7 7 8 7 7 7 11 7 6 6 6 7 4 5 5 4 4 4 4 3 3 3 3 3 3 2 2
2 3 4 4 5 6 5 5 5 7 7 7 7 7 8 9 8 7 7 7 7 10 7 5 5 8 8 8 4 4 4 4 4 3 3 3 3 3 2 2 2 2 2 2
2 3 4 4 5 6 6 5 5 6 7 7 7 7 8 7 6 6 8 5 5 10 7 5 8 12 12 5 3 3 3 3 3 3 2 2 2 2 1 2 1 1 1 1
2 3 4 4 4 4 6 6 6 5 6 7 7 7 7 6 6 5 6 10 12 12 6 8 12 12 10 4 3 3 3 3 2 2 2 2 1 1 1 1 1 0 0 1
2 3 3 3 4 4 6 6 6 6 6 5 6 6 5 4 6 6 5 6 10 11 6 8 11 11 6 3 3 3 3 2 2 1 1 1 1 1 1 1 0 0 0 0
2 3 3 3 4 4 4 4 5 5 5 6 6 5 5 4 5 5 5 6 7 9 6 4 5 5 3 3 3 3 3 3 3 2 2 1 1 1 1 1 1 1 1 1
3 2 3 3 3 3 4 4 5 5 5 6 7 6 6 6 5 5 6 5 5 5 4 4 3 3 3 3 3 3 2 2 2 2 2 1 1 1 1 1 1 1 1 1
Wind_Direction
360 321 157 333 304 146 151 171 173 201 196 260 333 56 51 49 47 44 33 26 21 13 4 360 357 351 344 332 322 300 226 205 201 177 158 151 149 144 139 138 140 137 132 132
17 8 38 34 6 102 174 175 172 137 280 341 59 63 54 46 46 38 23 13 6 2 357 353 347 339 333 324 313 287 242 226 197 170 165 164 158 149 143 142 140 138 143 146
340 327 24 329 304 205 164 100 173 197 226 55 62 62 56 46 43 31 12 1 355 348 339 333 329 326 321 314 309 288 256 230 196 181 178 174 161 155 157 156 150 150 155 158
62 34 258 260 336 141 122 61 25 69 40 34 77 103 78 57 40 15 358 349 342 335 329 325 321 320 315 313 307 289 268 241 207 189 184 172 167 172 167 158 160 162 168 168
99 69 286 299 1 112 141 27 6 65 43 28 24 90 45 32 21 357 340 331 324 321 315 316 319 320 321 319 313 297 279 257 225 198 187 180 184 182 171 163 167 169 169 171
119 171 253 270 307 307 115 290 12 85 72 30 53 61 301 354 348 340 333 326 323 322 320 322 321 322 322 319 314 300 291 277 244 208 196 195 193 181 171 169 173 168 172 177
156 230 267 276 296 6 168 252 108 100 85 62 51 246 297 325 329 325 320 319 322 324 324 318 317 323 321 318 308 301 297 282 255 221 207 199 185 175 168 167 164 171 178 185
164 208 254 340 58 153 195 123 107 98 53 351 290 301 312 318 318 321 322 322 323 324 322 319 320 324 320 313 306 304 295 279 260 234 210 188 177 176 173 171 173 179 186 195
191 211 240 3 139 120 138 136 144 156 317 316 304 306 313 313 314 312 315 316 317 318 317 319 320 320 312 310 310 306 298 284 269 243 212 189 185 183 181 183 186 188 192 204
234 245 215 182 136 99 109 136 153 203 286 300 293 299 305 308 311 313 312 311 313 314 314 314 317 315 304 306 307 301 292 285 269 242 224 206 198 193 192 192 194 193 199 208
239 242 198 227 211 188 150 122 117 304 292 287 289 294 298 302 303 304 305 303 305 306 305 305 309 308 306 304 303 299 291 281 266 244 230 219 213 210 206 207 201 197 203 200
215 206 188 218 196 179 184 218 251 281 295 292 283 287 294 293 294 298 300 303 304 303 300 301 303 303 304 303 296 292 289 280 265 250 237 227 221 225 221 217 219 217 211 203
192 161 170 182 164 173 198 237 260 266 271 284 285 281 288 290 293 296 298 301 300 300 299 299 300 299 300 301 297 288 284 280 269 253 241 232 224 221 227 224 224 224 222 221
155 128 147 184 198 209 226 259 277 286 282 277 279 285 287 290 292 294 295 296 297 298 298 297 297 295 296 298 295 287 281 274 269 259 246 235 227 225 225 221 218 221 223 225
185 177 189 190 198 234 253 278 297 296 293 292 288 289 289 290 292 292 293 295 297 296 296 296 295 295 298 296 293 288 281 270 265 263 255 243 229 222 225 225 225 220 209 221
177 173 181 203 240 260 274 279 282 285 288 288 289 288 286 283 285 289 290 291 292 294 296 297 294 295 297 293 290 287 279 274 270 264 259 250 235 226 224 225 224 220 219 216
157 198 217 239 252 261 260 260 263 272 280 282 284 290 293 293 291 290 291 289 283 284 287 288 289 293 292 290 288 285 280 275 270 265 254 250 242 233 229 228 228 225 225 216
191 200 204 218 236 256 269 270 269 273 274 278 288 291 289 288 288 290 293 296 294 290 285 279 282 290 289 286 284 281 278 272 264 259 257 254 253 241 231 229 230 230 230 223
202 215 228 239 242 248 260 267 271 273 278 282 285 284 282 281 282 287 293 296 295 295 294 290 298 298 289 287 289 279 278 274 268 261 255 257 260 253 242 235 232 229 225 219
219 233 247 259 258 250 261 269 275 278 277 276 278 282 284 284 286 290 292 286 277 276 288 294 296 290 286 285 288 278 275 274 271 267 258 252 253 254 248 242 236 232 228 222
246 258 268 273 277 272 266 270 276 279 283 279 272 276 282 288 289 287 289 290 287 285 290 296 296 288 286 287 286 277 274 273 270 264 259 255 253 253 250 248 241 234 230 226
255 266 274 278 282 287 285 279 274 279 285 286 281 279 285 290 292 287 272 268 284 300 304 293 289 292 297 294 279 274 273 276 276 268 258 255 253 252 251 251 245 235 228 226
264 270 278 282 283 288 294 288 279 279 282 284 285 286 284 285 287 290 295 291 292 303 307 295 302 308 312 306 287 280 280 280 281 279 276 271 267 263 260 258 249 232 226 228
284 290 289 291 294 295 298 299 296 288 284 283 280 279 282 291 291 273 274 298 308 310 305 305 315 320 322 319 304 295 291 290 287 286 288 288 287 282 278 279 271 252 230 223
304 300 302 310 307 296 293 302 305 301 300 295 292 289 282 274 282 295 296 297 306 313 309 313 320 325 328 320 317 313 306 304 305 299 296 300 303 306 308 310 308 302 281 239
317 307 299 290 286 292 299 304 305 306 309 308 307 304 303 299 292 293 296 298 302 310 312 308 312 319 321 318 318 319 319 323 332 343 345 338 336 334 334 338 334 318 292 254
325 319 317 317 314 310 308 307 307 308 311 308 309 313 314 313 311 308 305 305 307 307 306 308 310 312 313 315 317 320 323 327 332 333 334 334 332 329 326 320 310 303 295 278